DW6277 Weather Reports


Display with metric or nautical units.
time (UTC)temp
F
wind
direction
speed
MPH
gust
MPH
rain 1hr
in
rain 24hr
in
rain mn
in
humidity
%
barometer
mb
20260507051733 65 224 8.0 23.0 0.00 0.00 0.00 32 1013.9
20260507050732 66 231 9.0 23.0 0.00 0.00 0.00 31 1013.8
20260507045712 66 224 7.0 19.0 0.00 0.00 0.00 30 1013.5
20260507044640 66 266 8.0 23.0 0.00 0.00 0.00 33 1013.4
20260507043700 66 238 10.0 24.0 0.00 0.00 0.00 33 1013.1
20260507042659 67 229 9.0 26.0 0.00 0.00 0.00 33 1012.9
20260507041701 66 200 8.0 26.0 0.00 0.00 0.00 37 1012.6
20260507040713 66 186 6.0 22.0 0.00 0.00 0.00 42 1012.6
20260507035735 66 231 6.0 22.0 0.00 0.00 0.00 41 1012.4
20260507034732 66 270 6.0 18.0 0.00 0.00 0.00 42 1012.4
20260507033707 66 196 7.0 18.0 0.00 0.00 0.00 50 1012.2
20260507032635 66 243 5.0 15.0 0.00 0.00 0.00 56 1012.2
20260507031649 66 246 3.0 8.0 0.00 0.00 0.00 62 1012.2
20260507030652 66 291 4.0 14.0 0.00 0.00 0.00 62 1012.1
20260507024522 67 292 6.0 14.0 0.00 0.00 0.00 60 1012.3
20260507023516 66 299 5.0 14.0 0.00 0.00 0.00 60 1012.4
20260507022520 67 288 6.0 12.0 0.00 0.00 0.00 59 1012.6
20260507021446 69 318 4.0 11.0 0.00 0.00 0.00 58 1012.8
20260507020441 68 231 6.0 17.0 0.00 0.00 0.00 60 1013.2
20260507015411 67 310 5.0 12.0 0.00 0.00 0.00 61 1013.3
20260507014345 68 334 4.0 10.0 0.00 0.00 0.00 60 1013.5
20260507013352 66 305 5.0 15.0 0.00 0.00 0.00 61 1013.7
20260507012345 66 347 5.0 15.0 0.00 0.00 0.00 60 1013.8
20260507011349 66 255 6.0 16.0 0.00 0.00 0.00 61 1013.9
20260507004109 65 279 5.0 17.0 0.00 0.00 0.00 62 1014.0
20260507003035 65 300 4.0 17.0 0.00 0.00 0.00 63 1014.1
20260507002043 65 298 5.0 12.0 0.00 0.00 0.00 64 1014.3
20260507001024 65 316 3.0 9.0 0.00 0.00 0.00 65 1014.4
20260507000029 64 279 4.0 10.0 0.00 0.00 0.00 67 1014.5
20260506235021 63 352 5.0 12.0 0.00 0.00 0.00 67 1014.7
20260506234017 63 328 5.0 12.0 0.00 0.00 0.00 68 1014.5
20260506232953 63 283 5.0 14.0 0.00 0.00 0.00 68 1014.4
20260506231940 63 303 4.0 14.0 0.00 0.00 0.00 70 1014.5
20260506230917 62 265 4.0 12.0 0.00 0.00 0.00 74 1014.4
20260506225916 61 302 5.0 12.0 0.00 0.00 0.00 76 1014.4
20260506224905 61 336 4.0 10.0 0.00 0.00 0.00 76 1014.3
20260506223857 61 334 3.0 8.0 0.00 0.00 0.00 78 1014.4
20260506222922 60 304 3.0 9.0 0.00 0.00 0.00 79 1014.4
20260506221856 60 290 3.0 9.0 0.00 0.00 0.00 80 1014.5
20260506220829 59 308 2.0 9.0 0.00 0.00 0.00 81 1014.5
20260506215826 59 326 3.0 9.0 0.00 0.00 0.00 82 1014.4
20260506213646 58 302 2.0 6.0 0.00 0.00 0.00 83 1014.1
20260506212708 57 259 3.0 9.0 0.00 0.00 0.00 84 1013.9
20260506211636 57 323 3.0 9.0 0.00 0.00 0.00 85 1013.7
20260506210647 57 319 4.0 10.0 0.00 0.00 0.00 85 1013.8
20260506205636 57 297 3.0 13.0 0.00 0.00 0.00 85 1013.7
20260506203442 56 348 5.0 13.0 0.00 0.00 0.00 86 1012.9
20260506202427 57 308 5.0 11.0 0.00 0.00 0.00 86 1012.8
20260506200317 57 304 5.0 12.0 0.00 0.00 0.00 87 1012.6
20260506194123 57 305 4.0 10.0 0.00 0.00 0.00 88 1012.6
20260506193059 57 331 2.0 6.0 0.00 0.00 0.00 89 1012.5
20260506190942 57 321 2.0 7.0 0.00 0.00 0.00 90 1012.6
20260506185916 58 281 2.0 6.0 0.00 0.00 0.00 90 1012.7
20260506184911 58 306 1.0 7.0 0.00 0.00 0.00 91 1012.8
20260506183905 58 274 2.0 7.0 0.00 0.00 0.00 91 1012.7
20260506182845 58 295 3.0 8.0 0.00 0.00 0.00 92 1012.7
20260506181846 58 314 3.0 9.0 0.00 0.00 0.00 92 1012.6
20260506180822 58 205 4.0 10.0 0.00 0.00 0.00 93 1012.6
20260506175801 59 317 4.0 10.0 0.00 0.00 0.00 94 1012.5
20260506173701 60 302 4.0 10.0 0.00 0.00 0.00 94 1012.5
20260506172641 60 321 3.0 10.0 0.00 0.00 0.00 95 1012.4
20260506171612 60 311 2.0 8.0 0.00 0.00 0.00 95 1012.4
20260506170550 60 319 1.0 5.0 0.00 0.00 0.00 95 1012.6
20260506165519 59 318 2.0 5.0 0.00 0.00 0.00 95 1012.5
20260506164532 59 295 1.0 4.0 0.00 0.00 0.00 94 1012.6
20260506163508 59 313 2.0 5.0 0.00 0.00 0.00 94 1012.7
20260506162519 59 301 2.0 5.0 0.00 0.00 0.00 94 1012.9
20260506161500 60 314 1.0 5.0 0.00 0.00 0.00 94 1012.9
20260506160525 60 292 2.0 5.0 0.00 0.00 0.00 94 1013.0
20260506155534 60 294 2.0 4.0 0.00 0.00 0.00 93 1013.0
20260506154556 61 328 2.0 5.0 0.00 0.00 0.00 93 1013.0
20260506153527 61 335 2.0 5.0 0.00 0.00 0.00 93 1013.0
20260506151439 61 317 1.0 4.0 0.00 0.00 0.00 92 1013.1
20260506150453 62 322 1.0 4.0 0.00 0.00 0.00 92 1013.2
20260506145424 62 318 2.0 4.0 0.00 0.00 0.00 92 1013.2
20260506140945 63 324 1.0 3.0 0.00 0.00 0.00 91 1013.6
20260506135956 63 316 1.0 3.0 0.00 0.00 0.00 91 1013.7
20260506135002 63 320 1.0 3.0 0.00 0.00 0.00 90 1013.7
20260506133929 64 309 1.0 3.0 0.00 0.00 0.00 90 1013.8
20260506132948 64 316 0.0 3.0 0.00 0.00 0.00 90 1013.7
20260506131939 64 302 0.0 1.0 0.00 0.00 0.00 90 1013.8
20260506130928 64 286 0.0 0.0 0.00 0.00 0.00 89 1013.9
20260506125928 64 283 0.0 0.0 0.00 0.00 0.00 89 1014.1
20260506124943 64 272 0.0 1.0 0.00 0.00 0.00 89 1014.2
20260506123958 64 264 0.0 0.0 0.00 0.00 0.00 89 1014.2
20260506122955 65 311 0.0 2.0 0.00 0.00 0.00 89 1014.4
20260506122001 64 274 0.0 0.0 0.00 0.00 0.00 89 1014.5
20260506120937 64 274 0.0 2.0 0.00 0.00 0.00 88 1014.7
20260506113636 65 266 0.0 0.0 0.00 0.00 0.00 86 1015.1
20260506112610 65 266 0.0 0.0 0.00 0.00 0.00 86 1015.2
20260506111603 65 266 0.0 0.0 0.00 0.00 0.00 86 1015.3
20260506110625 66 266 0.0 0.0 0.00 0.00 0.00 85 1015.4
20260506105601 66 266 0.0 2.0 0.00 0.00 0.00 85 1015.5
20260506104559 66 318 0.0 0.0 0.00 0.00 0.00 84 1015.6
20260506103621 66 318 0.0 0.0 0.00 0.00 0.00 84 1015.7
20260506102624 67 318 0.0 0.0 0.00 0.00 0.00 83 1015.7
20260506101617 67 318 0.0 2.0 0.00 0.00 0.00 83 1015.8
20260506100641 68 313 0.0 2.0 0.00 0.00 0.00 82 1015.7
20260506095618 68 91 0.0 0.0 0.00 0.00 0.00 82 1015.7
20260506093520 68 91 0.0 0.0 0.00 0.00 0.00 82 1015.7
20260506092526 69 91 0.0 0.0 0.00 0.00 0.00 82 1015.7
20260506091551 69 91 0.0 1.0 0.00 0.00 0.00 82 1015.6
20260506090527 69 91 0.0 0.0 0.00 0.00 0.00 82 1015.6
20260506085507 69 91 0.0 0.0 0.00 0.00 0.00 82 1015.7
20260506084503 69 91 0.0 1.0 0.00 0.00 0.00 82 1015.7
20260506083431 69 91 0.0 0.0 0.00 0.00 0.00 81 1015.7
20260506082401 69 91 0.0 1.0 0.00 0.00 0.00 81 1015.5
20260506081350 69 137 0.0 0.0 0.00 0.00 0.00 81 1015.6
20260506080341 69 126 0.0 4.0 0.00 0.00 0.00 81 1015.5
20260506072038 69 153 1.0 5.0 0.00 0.00 0.00 81 1015.4
20260506071045 69 135 2.0 5.0 0.00 0.00 0.00 80 1015.3
20260506060836 70 123 3.0 6.0 0.00 0.00 0.00 80 1015.4